Location: Gleizolles
(44.4833°N, 6.7667°E)
Time: 05:07:59
(UTC+00:00)

Transit 4A - Pass Details

Date: 29 June 2024
Orbit: 870 x 973 km, 66.8° (Epoch: 14 July)

Event Time Altitude Azimuth Distance (km) Brightness Sun altitude
Rises 21:25:41 0° 242° (WSW) 3,456 10.9 -16.0°
Reaches altitude 10° 21:28:26 10° 253° (WSW) 2,517 10.3 -16.3°
Maximum altitude 21:33:34 32° 315° (NW) 1,470 9.7 -16.7°
Drops below altitude 10° 21:38:44 10° 17° (NNE) 2,534 10.8 -17.2°
Sets 21:41:32 0° 28° (NNE) 3,484 11.4 -17.4°
